Location: Bas-Clignon
(44.2000°N, 6.6333°E)
Time: 02:03:59
(UTC+00:00)

BlueWalker 3 - Pass Details

Date: 03 February 2023
Orbit: 497 x 515 km, 53.2° (Epoch: 27 March)

Event Time Altitude Azimuth Distance (km) Brightness Sun altitude
Rises 18:32:27 0° 297° (WNW) 2,604 6.6 -19.4°
Reaches altitude 10° 18:35:00 10° 313° (NW) 1,723 5.2 -19.8°
Maximum altitude 18:38:06 22° 6° (N) 1,152 3.6 -20.4°
Enters shadow 18:38:13 22° 9° (N) 1,153 3.6 -20.4°
